owner,sensor,date,latitude,longitude,vertical_datum,sea_water_temperature,qcFlag
Enven,ioos:station:wmo:42362:1,2022-11-01T00:06:00Z,27.7950,-90.6470,12.0,83.8,11144222
Enven,ioos:station:wmo:42362:1,2022-11-01T00:16:00Z,27.7950,-90.6470,12.0,83.8,11144222
Enven,ioos:station:wmo:42362:1,2022-11-01T00:26:00Z,27.7950,-90.6470,12.0,83.7,11144222
Enven,ioos:station:wmo:42362:1,2022-11-01T00:36:00Z,27.7950,-90.6470,12.0,83.4,11144222
Enven,ioos:station:wmo:42362:1,2022-11-01T00:46:00Z,27.7950,-90.6470,12.0,83.6,11144222
Enven,ioos:station:wmo:42362:1,2022-11-01T00:56:00Z,27.7950,-90.6470,12.0,83.6,11144222
Enven,ioos:station:wmo:42362:1,2022-11-01T01:06:00Z,27.7950,-90.6470,12.0,83.6,11144222
Enven,ioos:station:wmo:42362:1,2022-11-01T01:16:00Z,27.7950,-90.6470,12.0,83.8,11144222
Enven,ioos:station:wmo:42362:1,2022-11-01T01:26:00Z,27.7950,-90.6470,12.0,84.1,11144222
Enven,ioos:station:wmo:42362:1,2022-11-01T01:36:00Z,27.7950,-90.6470,12.0,84.2,11144222
Enven,ioos:station:wmo:42362:1,2022-11-01T01:46:00Z,27.7950,-90.6470,12.0,84.2,11144222
Enven,ioos:station:wmo:42362:1,2022-11-01T01:56:00Z,27.7950,-90.6470,12.0,84.0,11144222
Enven,ioos:station:wmo:42362:1,2022-11-01T02:06:00Z,27.7950,-90.6470,12.0,84.0,11144222
Enven,ioos:station:wmo:42362:1,2022-11-01T02:16:00Z,27.7950,-90.6470,12.0,84.2,11144222
Enven,ioos:station:wmo:42362:1,2022-11-01T02:26:00Z,27.7950,-90.6470,12.0,84.2,11144222
Enven,ioos:station:wmo:42362:1,2022-11-01T02:36:00Z,27.7950,-90.6470,12.0,84.1,11144222
Enven,ioos:station:wmo:42362:1,2022-11-01T02:46:00Z,27.7950,-90.6470,12.0,84.0,11144222
Enven,ioos:station:wmo:42362:1,2022-11-01T02:56:00Z,27.7950,-90.6470,12.0,84.0,11144222
Enven,ioos:station:wmo:42362:1,2022-11-01T03:06:00Z,27.7950,-90.6470,12.0,83.9,11144222
Enven,ioos:station:wmo:42362:1,2022-11-01T03:16:00Z,27.7950,-90.6470,12.0,84.0,11144222
Enven,ioos:station:wmo:42362:1,2022-11-01T03:26:00Z,27.7950,-90.6470,12.0,84.0,11144222
Enven,ioos:station:wmo:42362:1,2022-11-01T03:36:00Z,27.7950,-90.6470,12.0,84.0,11144222
Enven,ioos:station:wmo:42362:1,2022-11-01T03:46:00Z,27.7950,-90.6470,12.0,84.0,11144222
Enven,ioos:station:wmo:42362:1,2022-11-01T03:56:00Z,27.7950,-90.6470,12.0,84.0,11144222
Enven,ioos:station:wmo:42362:1,2022-11-01T04:06:00Z,27.7950,-90.6470,12.0,83.8,11144222
Enven,ioos:station:wmo:42362:1,2022-11-01T04:16:00Z,27.7950,-90.6470,12.0,83.8,11144222
Enven,ioos:station:wmo:42362:1,2022-11-01T04:26:00Z,27.7950,-90.6470,12.0,84.0,11144222
Enven,ioos:station:wmo:42362:1,2022-11-01T04:36:00Z,27.7950,-90.6470,12.0,84.0,11144222
Enven,ioos:station:wmo:42362:1,2022-11-01T04:46:00Z,27.7950,-90.6470,12.0,83.9,11144222
Enven,ioos:station:wmo:42362:1,2022-11-01T04:56:00Z,27.7950,-90.6470,12.0,83.9,11144222
Enven,ioos:station:wmo:42362:1,2022-11-01T05:06:00Z,27.7950,-90.6470,12.0,83.9,11144222
Enven,ioos:station:wmo:42362:1,2022-11-01T05:16:00Z,27.7950,-90.6470,12.0,83.9,11144222
Enven,ioos:station:wmo:42362:1,2022-11-01T05:26:00Z,27.7950,-90.6470,12.0,83.7,11144222
Enven,ioos:station:wmo:42362:1,2022-11-01T05:36:00Z,27.7950,-90.6470,12.0,83.6,11144222
Enven,ioos:station:wmo:42362:1,2022-11-01T05:46:00Z,27.7950,-90.6470,12.0,83.7,11144222
Enven,ioos:station:wmo:42362:1,2022-11-01T05:56:00Z,27.7950,-90.6470,12.0,83.6,11144222
Enven,ioos:station:wmo:42362:1,2022-11-01T06:06:00Z,27.7950,-90.6470,12.0,83.5,11144222
Enven,ioos:station:wmo:42362:1,2022-11-01T06:16:00Z,27.7950,-90.6470,12.0,83.5,11144222
Enven,ioos:station:wmo:42362:1,2022-11-01T06:26:00Z,27.7950,-90.6470,12.0,83.6,11144222
Enven,ioos:station:wmo:42362:1,2022-11-01T06:36:00Z,27.7950,-90.6470,12.0,83.3,11144222
Enven,ioos:station:wmo:42362:1,2022-11-01T06:46:00Z,27.7950,-90.6470,12.0,82.9,11144222
Enven,ioos:station:wmo:42362:1,2022-11-01T06:56:00Z,27.7950,-90.6470,12.0,80.4,11144222
Enven,ioos:station:wmo:42362:1,2022-11-01T07:06:00Z,27.7950,-90.6470,12.0,80.4,11144222
Enven,ioos:station:wmo:42362:1,2022-11-01T07:16:00Z,27.7950,-90.6470,12.0,80.3,11144222
Enven,ioos:station:wmo:42362:1,2022-11-01T07:26:00Z,27.7950,-90.6470,12.0,78.4,11144222
Enven,ioos:station:wmo:42362:1,2022-11-01T07:36:00Z,27.7950,-90.6470,12.0,79.8,11144222
Enven,ioos:station:wmo:42362:1,2022-11-01T07:46:00Z,27.7950,-90.6470,12.0,80.0,11144222
Enven,ioos:station:wmo:42362:1,2022-11-01T07:56:00Z,27.7950,-90.6470,12.0,77.6,11144222
Enven,ioos:station:wmo:42362:1,2022-11-01T08:06:00Z,27.7950,-90.6470,12.0,76.1,11144222
Enven,ioos:station:wmo:42362:1,2022-11-01T08:16:00Z,27.7950,-90.6470,12.0,76.0,11144222
Enven,ioos:station:wmo:42362:1,2022-11-01T08:26:00Z,27.7950,-90.6470,12.0,72.6,11144222
Enven,ioos:station:wmo:42362:1,2022-11-01T08:36:00Z,27.7950,-90.6470,12.0,74.1,11144222
Enven,ioos:station:wmo:42362:1,2022-11-01T08:46:00Z,27.7950,-90.6470,12.0,75.2,11144222
Enven,ioos:station:wmo:42362:1,2022-11-01T08:56:00Z,27.7950,-90.6470,12.0,74.2,11144222
Enven,ioos:station:wmo:42362:1,2022-11-01T09:06:00Z,27.7950,-90.6470,12.0,72.3,11144222
Enven,ioos:station:wmo:42362:1,2022-11-01T09:16:00Z,27.7950,-90.6470,12.0,72.7,11144222
Enven,ioos:station:wmo:42362:1,2022-11-01T09:26:00Z,27.7950,-90.6470,12.0,71.7,11144222
Enven,ioos:station:wmo:42362:1,2022-11-01T09:36:00Z,27.7950,-90.6470,12.0,72.8,11144222
Enven,ioos:station:wmo:42362:1,2022-11-01T09:46:00Z,27.7950,-90.6470,12.0,74.0,11144222
Enven,ioos:station:wmo:42362:1,2022-11-01T09:56:00Z,27.7950,-90.6470,12.0,75.4,11144222
Enven,ioos:station:wmo:42362:1,2022-11-01T10:06:00Z,27.7950,-90.6470,12.0,76.2,11144222
Enven,ioos:station:wmo:42362:1,2022-11-01T10:16:00Z,27.7950,-90.6470,12.0,77.4,11144222
Enven,ioos:station:wmo:42362:1,2022-11-01T10:26:00Z,27.7950,-90.6470,12.0,73.9,11144222
Enven,ioos:station:wmo:42362:1,2022-11-01T10:36:00Z,27.7950,-90.6470,12.0,77.4,11144222
Enven,ioos:station:wmo:42362:1,2022-11-01T10:46:00Z,27.7950,-90.6470,12.0,79.3,11144222
Enven,ioos:station:wmo:42362:1,2022-11-01T10:56:00Z,27.7950,-90.6470,12.0,79.7,11144222
Enven,ioos:station:wmo:42362:1,2022-11-01T11:06:00Z,27.7950,-90.6470,12.0,79.3,11144222
Enven,ioos:station:wmo:42362:1,2022-11-01T11:16:00Z,27.7950,-90.6470,12.0,79.2,11144222
Enven,ioos:station:wmo:42362:1,2022-11-01T11:26:00Z,27.7950,-90.6470,12.0,81.1,11144222
Enven,ioos:station:wmo:42362:1,2022-11-01T11:36:00Z,27.7950,-90.6470,12.0,80.3,11144222
Enven,ioos:station:wmo:42362:1,2022-11-01T11:46:00Z,27.7950,-90.6470,12.0,79.8,11144222
Enven,ioos:station:wmo:42362:1,2022-11-01T11:56:00Z,27.7950,-90.6470,12.0,78.2,11144222
Enven,ioos:station:wmo:42362:1,2022-11-01T12:06:00Z,27.7950,-90.6470,12.0,80.4,11144222
Enven,ioos:station:wmo:42362:1,2022-11-01T12:16:00Z,27.7950,-90.6470,12.0,79.9,11144222
Enven,ioos:station:wmo:42362:1,2022-11-01T12:26:00Z,27.7950,-90.6470,12.0,80.0,11144222
Enven,ioos:station:wmo:42362:1,2022-11-01T12:36:00Z,27.7950,-90.6470,12.0,80.1,11144222
Enven,ioos:station:wmo:42362:1,2022-11-01T12:46:00Z,27.7950,-90.6470,12.0,79.9,11144222
Enven,ioos:station:wmo:42362:1,2022-11-01T12:56:00Z,27.7950,-90.6470,12.0,79.3,11144222
Enven,ioos:station:wmo:42362:1,2022-11-01T13:06:00Z,27.7950,-90.6470,12.0,79.5,11144222
Enven,ioos:station:wmo:42362:1,2022-11-01T13:16:00Z,27.7950,-90.6470,12.0,76.8,11144222
Enven,ioos:station:wmo:42362:1,2022-11-01T13:26:00Z,27.7950,-90.6470,12.0,77.4,11144222
Enven,ioos:station:wmo:42362:1,2022-11-01T13:36:00Z,27.7950,-90.6470,12.0,79.1,11144222
Enven,ioos:station:wmo:42362:1,2022-11-01T13:46:00Z,27.7950,-90.6470,12.0,79.2,11144222
Enven,ioos:station:wmo:42362:1,2022-11-01T13:56:00Z,27.7950,-90.6470,12.0,79.1,11144222
Enven,ioos:station:wmo:42362:1,2022-11-01T14:06:00Z,27.7950,-90.6470,12.0,78.0,11144222
Enven,ioos:station:wmo:42362:1,2022-11-01T14:16:00Z,27.7950,-90.6470,12.0,76.4,11144222
Enven,ioos:station:wmo:42362:1,2022-11-01T14:26:00Z,27.7950,-90.6470,12.0,78.5,11144222
Enven,ioos:station:wmo:42362:1,2022-11-01T14:36:00Z,27.7950,-90.6470,12.0,78.8,11144222
Enven,ioos:station:wmo:42362:1,2022-11-01T14:46:00Z,27.7950,-90.6470,12.0,76.0,11144222
Enven,ioos:station:wmo:42362:1,2022-11-01T14:56:00Z,27.7950,-90.6470,12.0,71.9,11144222
Enven,ioos:station:wmo:42362:1,2022-11-01T15:06:00Z,27.7950,-90.6470,12.0,71.5,11144222
Enven,ioos:station:wmo:42362:1,2022-11-01T15:16:00Z,27.7950,-90.6470,12.0,72.9,11144222
Enven,ioos:station:wmo:42362:1,2022-11-01T15:26:00Z,27.7950,-90.6470,12.0,74.9,11144222
Enven,ioos:station:wmo:42362:1,2022-11-01T15:36:00Z,27.7950,-90.6470,12.0,75.2,11144222
Enven,ioos:station:wmo:42362:1,2022-11-01T15:46:00Z,27.7950,-90.6470,12.0,74.9,11144222
Enven,ioos:station:wmo:42362:1,2022-11-01T15:56:00Z,27.7950,-90.6470,12.0,74.2,11144222
Enven,ioos:station:wmo:42362:1,2022-11-01T16:06:00Z,27.7950,-90.6470,12.0,75.1,11144222
Enven,ioos:station:wmo:42362:1,2022-11-01T16:16:00Z,27.7950,-90.6470,12.0,74.8,11144222
Enven,ioos:station:wmo:42362:1,2022-11-01T16:26:00Z,27.7950,-90.6470,12.0,74.1,11144222
Enven,ioos:station:wmo:42362:1,2022-11-01T16:36:00Z,27.7950,-90.6470,12.0,73.2,11144222
Enven,ioos:station:wmo:42362:1,2022-11-01T16:46:00Z,27.7950,-90.6470,12.0,72.1,11144222
Enven,ioos:station:wmo:42362:1,2022-11-01T16:56:00Z,27.7950,-90.6470,12.0,72.4,11144222
Enven,ioos:station:wmo:42362:1,2022-11-01T17:06:00Z,27.7950,-90.6470,12.0,73.0,11144222
Enven,ioos:station:wmo:42362:1,2022-11-01T17:16:00Z,27.7950,-90.6470,12.0,74.5,11144222
Enven,ioos:station:wmo:42362:1,2022-11-01T17:26:00Z,27.7950,-90.6470,12.0,77.1,11144222
Enven,ioos:station:wmo:42362:1,2022-11-01T17:36:00Z,27.7950,-90.6470,12.0,77.6,11144222
Enven,ioos:station:wmo:42362:1,2022-11-01T17:46:00Z,27.7950,-90.6470,12.0,77.1,11144222
Enven,ioos:station:wmo:42362:1,2022-11-01T17:56:00Z,27.7950,-90.6470,12.0,76.8,11144222
Enven,ioos:station:wmo:42362:1,2022-11-01T18:06:00Z,27.7950,-90.6470,12.0,76.8,11144222
Enven,ioos:station:wmo:42362:1,2022-11-01T18:16:00Z,27.7950,-90.6470,12.0,76.7,11144222
Enven,ioos:station:wmo:42362:1,2022-11-01T18:26:00Z,27.7950,-90.6470,12.0,75.9,11144222
Enven,ioos:station:wmo:42362:1,2022-11-01T18:36:00Z,27.7950,-90.6470,12.0,75.1,11144222
Enven,ioos:station:wmo:42362:1,2022-11-01T18:46:00Z,27.7950,-90.6470,12.0,74.6,11144222
Enven,ioos:station:wmo:42362:1,2022-11-01T18:56:00Z,27.7950,-90.6470,12.0,74.1,11144222
Enven,ioos:station:wmo:42362:1,2022-11-01T19:06:00Z,27.7950,-90.6470,12.0,73.9,11144222
Enven,ioos:station:wmo:42362:1,2022-11-01T19:16:00Z,27.7950,-90.6470,12.0,73.7,11144222
Enven,ioos:station:wmo:42362:1,2022-11-01T19:26:00Z,27.7950,-90.6470,12.0,73.6,11144222
Enven,ioos:station:wmo:42362:1,2022-11-01T19:36:00Z,27.7950,-90.6470,12.0,72.9,11144222
Enven,ioos:station:wmo:42362:1,2022-11-01T19:46:00Z,27.7950,-90.6470,12.0,73.0,11144222
Enven,ioos:station:wmo:42362:1,2022-11-01T19:56:00Z,27.7950,-90.6470,12.0,72.3,11144222
Enven,ioos:station:wmo:42362:1,2022-11-01T20:06:00Z,27.7950,-90.6470,12.0,71.9,11144222
Enven,ioos:station:wmo:42362:1,2022-11-01T20:16:00Z,27.7950,-90.6470,12.0,71.8,11144222
Enven,ioos:station:wmo:42362:1,2022-11-01T20:26:00Z,27.7950,-90.6470,12.0,71.8,11144222
Enven,ioos:station:wmo:42362:1,2022-11-01T20:36:00Z,27.7950,-90.6470,12.0,71.7,11144222
Enven,ioos:station:wmo:42362:1,2022-11-01T20:46:00Z,27.7950,-90.6470,12.0,71.4,11144222
Enven,ioos:station:wmo:42362:1,2022-11-01T20:56:00Z,27.7950,-90.6470,12.0,70.9,11144222
Enven,ioos:station:wmo:42362:1,2022-11-01T21:06:00Z,27.7950,-90.6470,12.0,71.0,11144222
Enven,ioos:station:wmo:42362:1,2022-11-01T21:16:00Z,27.7950,-90.6470,12.0,72.3,11144222
Enven,ioos:station:wmo:42362:1,2022-11-01T21:26:00Z,27.7950,-90.6470,12.0,73.0,11144222
Enven,ioos:station:wmo:42362:1,2022-11-01T21:36:00Z,27.7950,-90.6470,12.0,72.6,11144222
Enven,ioos:station:wmo:42362:1,2022-11-01T21:46:00Z,27.7950,-90.6470,12.0,71.3,11144222
Enven,ioos:station:wmo:42362:1,2022-11-01T21:56:00Z,27.7950,-90.6470,12.0,70.8,11144222
Enven,ioos:station:wmo:42362:1,2022-11-01T22:06:00Z,27.7950,-90.6470,12.0,71.1,11144222
Enven,ioos:station:wmo:42362:1,2022-11-01T22:16:00Z,27.7950,-90.6470,12.0,72.8,11144222
Enven,ioos:station:wmo:42362:1,2022-11-01T22:26:00Z,27.7950,-90.6470,12.0,73.5,11144222
Enven,ioos:station:wmo:42362:1,2022-11-01T22:36:00Z,27.7950,-90.6470,12.0,73.7,11144222
Enven,ioos:station:wmo:42362:1,2022-11-01T22:46:00Z,27.7950,-90.6470,12.0,74.1,11144222
Enven,ioos:station:wmo:42362:1,2022-11-01T22:56:00Z,27.7950,-90.6470,12.0,73.8,11144222
Enven,ioos:station:wmo:42362:1,2022-11-01T23:06:00Z,27.7950,-90.6470,12.0,75.1,11144222
Enven,ioos:station:wmo:42362:1,2022-11-01T23:16:00Z,27.7950,-90.6470,12.0,76.5,11144222
Enven,ioos:station:wmo:42362:1,2022-11-01T23:26:00Z,27.7950,-90.6470,12.0,75.5,11144222
Enven,ioos:station:wmo:42362:1,2022-11-01T23:36:00Z,27.7950,-90.6470,12.0,76.2,11144222
Enven,ioos:station:wmo:42362:1,2022-11-01T23:46:00Z,27.7950,-90.6470,12.0,76.7,11144222
Enven,ioos:station:wmo:42362:1,2022-11-01T23:56:00Z,27.7950,-90.6470,12.0,77.9,11144222
Enven,ioos:station:wmo:42362:1,2022-11-02T00:06:00Z,27.7950,-90.6470,12.0,78.5,11144222
Enven,ioos:station:wmo:42362:1,2022-11-02T00:16:00Z,27.7950,-90.6470,12.0,78.7,11144222
Enven,ioos:station:wmo:42362:1,2022-11-02T00:26:00Z,27.7950,-90.6470,12.0,77.7,11144222
Enven,ioos:station:wmo:42362:1,2022-11-02T00:36:00Z,27.7950,-90.6470,12.0,77.7,11144222
Enven,ioos:station:wmo:42362:1,2022-11-02T00:46:00Z,27.7950,-90.6470,12.0,78.4,11144222
Enven,ioos:station:wmo:42362:1,2022-11-02T00:56:00Z,27.7950,-90.6470,12.0,78.5,11144222
Enven,ioos:station:wmo:42362:1,2022-11-02T01:06:00Z,27.7950,-90.6470,12.0,78.1,11144222
Enven,ioos:station:wmo:42362:1,2022-11-02T01:16:00Z,27.7950,-90.6470,12.0,75.2,11144222
Enven,ioos:station:wmo:42362:1,2022-11-02T01:26:00Z,27.7950,-90.6470,12.0,78.6,11144222
Enven,ioos:station:wmo:42362:1,2022-11-02T01:36:00Z,27.7950,-90.6470,12.0,78.4,11144222
Enven,ioos:station:wmo:42362:1,2022-11-02T01:46:00Z,27.7950,-90.6470,12.0,72.9,11144222
Enven,ioos:station:wmo:42362:1,2022-11-02T01:56:00Z,27.7950,-90.6470,12.0,72.9,11144222
Enven,ioos:station:wmo:42362:1,2022-11-02T02:06:00Z,27.7950,-90.6470,12.0,74.3,11144222
Enven,ioos:station:wmo:42362:1,2022-11-02T02:16:00Z,27.7950,-90.6470,12.0,73.3,11144222
Enven,ioos:station:wmo:42362:1,2022-11-02T02:26:00Z,27.7950,-90.6470,12.0,74.3,11144222
Enven,ioos:station:wmo:42362:1,2022-11-02T02:36:00Z,27.7950,-90.6470,12.0,77.8,11144222
Enven,ioos:station:wmo:42362:1,2022-11-02T02:46:00Z,27.7950,-90.6470,12.0,78.0,11144222
Enven,ioos:station:wmo:42362:1,2022-11-02T02:56:00Z,27.7950,-90.6470,12.0,76.0,11144222
Enven,ioos:station:wmo:42362:1,2022-11-02T03:06:00Z,27.7950,-90.6470,12.0,70.6,11144222
Enven,ioos:station:wmo:42362:1,2022-11-02T03:16:00Z,27.7950,-90.6470,12.0,70.6,11144222
Enven,ioos:station:wmo:42362:1,2022-11-02T03:26:00Z,27.7950,-90.6470,12.0,70.5,11144222
Enven,ioos:station:wmo:42362:1,2022-11-02T03:36:00Z,27.7950,-90.6470,12.0,71.4,11144222
Enven,ioos:station:wmo:42362:1,2022-11-02T03:46:00Z,27.7950,-90.6470,12.0,71.3,11144222
Enven,ioos:station:wmo:42362:1,2022-11-02T03:56:00Z,27.7950,-90.6470,12.0,69.9,11144222
Enven,ioos:station:wmo:42362:1,2022-11-02T04:06:00Z,27.7950,-90.6470,12.0,68.9,11144222
Enven,ioos:station:wmo:42362:1,2022-11-02T04:16:00Z,27.7950,-90.6470,12.0,69.9,11144222
Enven,ioos:station:wmo:42362:1,2022-11-02T04:26:00Z,27.7950,-90.6470,12.0,69.8,11144222
Enven,ioos:station:wmo:42362:1,2022-11-02T04:36:00Z,27.7950,-90.6470,12.0,69.0,11144222
Enven,ioos:station:wmo:42362:1,2022-11-02T04:46:00Z,27.7950,-90.6470,12.0,67.0,11144222
Enven,ioos:station:wmo:42362:1,2022-11-02T04:56:00Z,27.7950,-90.6470,12.0,66.2,11144222
Enven,ioos:station:wmo:42362:1,2022-11-02T05:06:00Z,27.7950,-90.6470,12.0,69.8,11144222
Enven,ioos:station:wmo:42362:1,2022-11-02T05:16:00Z,27.7950,-90.6470,12.0,70.6,11144222
Enven,ioos:station:wmo:42362:1,2022-11-02T05:26:00Z,27.7950,-90.6470,12.0,69.6,11144222
Enven,ioos:station:wmo:42362:1,2022-11-02T05:36:00Z,27.7950,-90.6470,12.0,68.3,11144222
Enven,ioos:station:wmo:42362:1,2022-11-02T05:46:00Z,27.7950,-90.6470,12.0,70.4,11144222
Enven,ioos:station:wmo:42362:1,2022-11-02T05:56:00Z,27.7950,-90.6470,12.0,73.0,11144222
Enven,ioos:station:wmo:42362:1,2022-11-02T06:06:00Z,27.7950,-90.6470,12.0,69.8,11144222
Enven,ioos:station:wmo:42362:1,2022-11-02T06:16:00Z,27.7950,-90.6470,12.0,71.3,11144222
Enven,ioos:station:wmo:42362:1,2022-11-02T06:26:00Z,27.7950,-90.6470,12.0,72.4,11144222
Enven,ioos:station:wmo:42362:1,2022-11-02T06:36:00Z,27.7950,-90.6470,12.0,72.5,11144222
Enven,ioos:station:wmo:42362:1,2022-11-02T06:46:00Z,27.7950,-90.6470,12.0,72.9,11144222
Enven,ioos:station:wmo:42362:1,2022-11-02T06:56:00Z,27.7950,-90.6470,12.0,70.5,11144222
Enven,ioos:station:wmo:42362:1,2022-11-02T07:06:00Z,27.7950,-90.6470,12.0,71.3,11144222
Enven,ioos:station:wmo:42362:1,2022-11-02T07:16:00Z,27.7950,-90.6470,12.0,72.1,11144222
Enven,ioos:station:wmo:42362:1,2022-11-02T07:26:00Z,27.7950,-90.6470,12.0,71.7,11144222
Enven,ioos:station:wmo:42362:1,2022-11-02T07:36:00Z,27.7950,-90.6470,12.0,75.5,11144222
Enven,ioos:station:wmo:42362:1,2022-11-02T07:46:00Z,27.7950,-90.6470,12.0,77.3,11144222
Enven,ioos:station:wmo:42362:1,2022-11-02T07:56:00Z,27.7950,-90.6470,12.0,73.1,11144222
Enven,ioos:station:wmo:42362:1,2022-11-02T08:06:00Z,27.7950,-90.6470,12.0,76.4,11144222
Enven,ioos:station:wmo:42362:1,2022-11-02T08:16:00Z,27.7950,-90.6470,12.0,74.7,11144222
Enven,ioos:station:wmo:42362:1,2022-11-02T08:26:00Z,27.7950,-90.6470,12.0,76.4,11144222
Enven,ioos:station:wmo:42362:1,2022-11-02T08:36:00Z,27.7950,-90.6470,12.0,77.6,11144222
Enven,ioos:station:wmo:42362:1,2022-11-02T08:46:00Z,27.7950,-90.6470,12.0,75.6,11144222
Enven,ioos:station:wmo:42362:1,2022-11-02T08:56:00Z,27.7950,-90.6470,12.0,79.2,11144222
Enven,ioos:station:wmo:42362:1,2022-11-02T09:06:00Z,27.7950,-90.6470,12.0,77.3,11144222
Enven,ioos:station:wmo:42362:1,2022-11-02T09:16:00Z,27.7950,-90.6470,12.0,79.4,11144222
Enven,ioos:station:wmo:42362:1,2022-11-02T09:26:00Z,27.7950,-90.6470,12.0,76.2,11144222
Enven,ioos:station:wmo:42362:1,2022-11-02T09:36:00Z,27.7950,-90.6470,12.0,78.0,11144222
Enven,ioos:station:wmo:42362:1,2022-11-02T09:46:00Z,27.7950,-90.6470,12.0,73.5,11144222
Enven,ioos:station:wmo:42362:1,2022-11-02T09:56:00Z,27.7950,-90.6470,12.0,76.3,11144222
Enven,ioos:station:wmo:42362:1,2022-11-02T10:06:00Z,27.7950,-90.6470,12.0,78.9,11144222
Enven,ioos:station:wmo:42362:1,2022-11-02T10:16:00Z,27.7950,-90.6470,12.0,81.0,11144222
Enven,ioos:station:wmo:42362:1,2022-11-02T10:26:00Z,27.7950,-90.6470,12.0,81.7,11144222
Enven,ioos:station:wmo:42362:1,2022-11-02T10:36:00Z,27.7950,-90.6470,12.0,82.1,11144222
Enven,ioos:station:wmo:42362:1,2022-11-02T10:46:00Z,27.7950,-90.6470,12.0,82.2,11144222
Enven,ioos:station:wmo:42362:1,2022-11-02T10:56:00Z,27.7950,-90.6470,12.0,82.0,11144222
Enven,ioos:station:wmo:42362:1,2022-11-02T11:06:00Z,27.7950,-90.6470,12.0,82.3,11144222
Enven,ioos:station:wmo:42362:1,2022-11-02T11:16:00Z,27.7950,-90.6470,12.0,82.3,11144222
Enven,ioos:station:wmo:42362:1,2022-11-02T11:26:00Z,27.7950,-90.6470,12.0,82.5,11144222
Enven,ioos:station:wmo:42362:1,2022-11-02T11:36:00Z,27.7950,-90.6470,12.0,82.5,11144222
Enven,ioos:station:wmo:42362:1,2022-11-02T11:46:00Z,27.7950,-90.6470,12.0,82.4,11144222
Enven,ioos:station:wmo:42362:1,2022-11-02T11:56:00Z,27.7950,-90.6470,12.0,82.2,11144222
Enven,ioos:station:wmo:42362:1,2022-11-02T12:06:00Z,27.7950,-90.6470,12.0,82.4,11144222
Enven,ioos:station:wmo:42362:1,2022-11-02T12:16:00Z,27.7950,-90.6470,12.0,82.7,11144222
Enven,ioos:station:wmo:42362:1,2022-11-02T12:26:00Z,27.7950,-90.6470,12.0,82.9,11144222
Enven,ioos:station:wmo:42362:1,2022-11-02T12:36:00Z,27.7950,-90.6470,12.0,83.0,11144222
Enven,ioos:station:wmo:42362:1,2022-11-02T12:46:00Z,27.7950,-90.6470,12.0,83.0,11144222
Enven,ioos:station:wmo:42362:1,2022-11-02T12:56:00Z,27.7950,-90.6470,12.0,83.0,11144222
Enven,ioos:station:wmo:42362:1,2022-11-02T13:06:00Z,27.7950,-90.6470,12.0,82.9,11144222
Enven,ioos:station:wmo:42362:1,2022-11-02T13:16:00Z,27.7950,-90.6470,12.0,82.9,11144222
Enven,ioos:station:wmo:42362:1,2022-11-02T13:26:00Z,27.7950,-90.6470,12.0,82.9,11144222
Enven,ioos:station:wmo:42362:1,2022-11-02T13:36:00Z,27.7950,-90.6470,12.0,83.0,11144222
Enven,ioos:station:wmo:42362:1,2022-11-02T13:46:00Z,27.7950,-90.6470,12.0,83.0,11144222
Enven,ioos:station:wmo:42362:1,2022-11-02T13:56:00Z,27.7950,-90.6470,12.0,83.0,11144222
Enven,ioos:station:wmo:42362:1,2022-11-02T14:06:00Z,27.7950,-90.6470,12.0,83.0,11144222
Enven,ioos:station:wmo:42362:1,2022-11-02T14:16:00Z,27.7950,-90.6470,12.0,83.0,11144222
Enven,ioos:station:wmo:42362:1,2022-11-02T14:26:00Z,27.7950,-90.6470,12.0,83.0,11144222
Enven,ioos:station:wmo:42362:1,2022-11-02T14:36:00Z,27.7950,-90.6470,12.0,83.0,11144222
Enven,ioos:station:wmo:42362:1,2022-11-02T14:46:00Z,27.7950,-90.6470,12.0,83.1,11144222
Enven,ioos:station:wmo:42362:1,2022-11-02T14:56:00Z,27.7950,-90.6470,12.0,83.0,11144222
Enven,ioos:station:wmo:42362:1,2022-11-02T15:06:00Z,27.7950,-90.6470,12.0,83.0,11144222
Enven,ioos:station:wmo:42362:1,2022-11-02T15:16:00Z,27.7950,-90.6470,12.0,83.1,11144222
Enven,ioos:station:wmo:42362:1,2022-11-02T15:26:00Z,27.7950,-90.6470,12.0,83.0,11144222
Enven,ioos:station:wmo:42362:1,2022-11-02T15:36:00Z,27.7950,-90.6470,12.0,83.1,11144222
Enven,ioos:station:wmo:42362:1,2022-11-02T15:46:00Z,27.7950,-90.6470,12.0,83.1,11144222
Enven,ioos:station:wmo:42362:1,2022-11-02T15:56:00Z,27.7950,-90.6470,12.0,83.1,11144222
Enven,ioos:station:wmo:42362:1,2022-11-02T16:06:00Z,27.7950,-90.6470,12.0,83.1,11144222
Enven,ioos:station:wmo:42362:1,2022-11-02T16:16:00Z,27.7950,-90.6470,12.0,83.1,11144222
Enven,ioos:station:wmo:42362:1,2022-11-02T16:26:00Z,27.7950,-90.6470,12.0,83.1,11144222
Enven,ioos:station:wmo:42362:1,2022-11-02T16:36:00Z,27.7950,-90.6470,12.0,83.1,11144222
Enven,ioos:station:wmo:42362:1,2022-11-02T16:46:00Z,27.7950,-90.6470,12.0,83.1,11144222
Enven,ioos:station:wmo:42362:1,2022-11-02T16:56:00Z,27.7950,-90.6470,12.0,83.1,11144222
Enven,ioos:station:wmo:42362:1,2022-11-02T17:06:00Z,27.7950,-90.6470,12.0,83.1,11144222
Enven,ioos:station:wmo:42362:1,2022-11-02T17:16:00Z,27.7950,-90.6470,12.0,83.1,11144222
Enven,ioos:station:wmo:42362:1,2022-11-02T17:26:00Z,27.7950,-90.6470,12.0,83.2,11144222
Enven,ioos:station:wmo:42362:1,2022-11-02T17:36:00Z,27.7950,-90.6470,12.0,83.2,11144222
Enven,ioos:station:wmo:42362:1,2022-11-02T17:46:00Z,27.7950,-90.6470,12.0,83.1,11144222
Enven,ioos:station:wmo:42362:1,2022-11-02T17:56:00Z,27.7950,-90.6470,12.0,83.1,11144222
Enven,ioos:station:wmo:42362:1,2022-11-02T18:06:00Z,27.7950,-90.6470,12.0,83.1,11144222
Enven,ioos:station:wmo:42362:1,2022-11-02T18:16:00Z,27.7950,-90.6470,12.0,83.2,11144222
Enven,ioos:station:wmo:42362:1,2022-11-02T18:26:00Z,27.7950,-90.6470,12.0,83.2,11144222
Enven,ioos:station:wmo:42362:1,2022-11-02T18:36:00Z,27.7950,-90.6470,12.0,83.2,11144222
Enven,ioos:station:wmo:42362:1,2022-11-02T18:46:00Z,27.7950,-90.6470,12.0,83.2,11144222
Enven,ioos:station:wmo:42362:1,2022-11-02T18:56:00Z,27.7950,-90.6470,12.0,83.2,11144222
Enven,ioos:station:wmo:42362:1,2022-11-02T19:06:00Z,27.7950,-90.6470,12.0,83.2,11144222
Enven,ioos:station:wmo:42362:1,2022-11-02T19:16:00Z,27.7950,-90.6470,12.0,83.2,11144222
Enven,ioos:station:wmo:42362:1,2022-11-02T19:26:00Z,27.7950,-90.6470,12.0,83.3,11144222
Enven,ioos:station:wmo:42362:1,2022-11-02T19:36:00Z,27.7950,-90.6470,12.0,83.2,11144222
Enven,ioos:station:wmo:42362:1,2022-11-02T19:46:00Z,27.7950,-90.6470,12.0,83.2,11144222
Enven,ioos:station:wmo:42362:1,2022-11-02T19:56:00Z,27.7950,-90.6470,12.0,83.2,11144222
Enven,ioos:station:wmo:42362:1,2022-11-02T20:06:00Z,27.7950,-90.6470,12.0,83.2,11144222
Enven,ioos:station:wmo:42362:1,2022-11-02T20:16:00Z,27.7950,-90.6470,12.0,83.2,11144222
Enven,ioos:station:wmo:42362:1,2022-11-02T20:26:00Z,27.7950,-90.6470,12.0,83.3,11144222
Enven,ioos:station:wmo:42362:1,2022-11-02T20:36:00Z,27.7950,-90.6470,12.0,83.3,11144222